[[{"header":{"parameterUnit":"m.s-1","parameterCategory":1,"la1":30.2991,"la2":30.254,"lo1":-89.0895,"lo2":-89.0444,"dx":0.0017,"dy":0.0017,"nx":28,"ny":28,"refTime":"2023-01-12T15:00:00:Z","depth":0,"parameterNumber":2,"parameterNumberName":"U-component_of_WINDS"},"data":[0,0,0,0,0,0,0,0,0,0,0,0,0,0,0,0,0,0,0,0,0,0,0,0,0,0,0,0,0,0,0,0,0,0,0,0,0,0,0,0,0,0,0,0,0,0,0,0,0,0,0,0,0,0,0,0,0,0,1.6173,1.6173,0,1.6178,1.6178,1.6178,1.6152,1.6151,1.6151,1.615,1.6156,1.6157,1.6157,0,0,0,0,0,0,0,0,0,0,0,0,0,1.6143,1.6144,1.6173,1.6173,1.6173,1.6178,1.6178,1.6178,1.6152,1.6151,1.6151,1.615,1.6155,1.6156,1.6157,0,0,0,0,0,0,0,0,0,0,0,0,0,1.6153,1.6144,1.6173,1.6161,1.616,1.6178,1.6178,1.6178,1.6153,1.6151,1.615,1.6149,1.6155,1.6156,1.6158,1.6188,0,0,1.6161,1.6162,0,0,0,0,0,0,0,0,1.6153,1.6154,1.6163,1.6162,1.6161,1.6163,1.617,1.6181,1.6153,1.6155,1.615,1.6149,1.6159,1.616,1.6163,1.6188,1.6188,1.6162,1.6162,1.6163,1.6163,0,0,0,0,0,0,0,1.6152,1.6154,1.6175,1.6163,1.6162,1.6156,1.6156,1.6172,1.6164,1.6155,1.6153,1.6154,1.6158,1.6162,1.6163,1.6188,1.6162,1.6163,1.6163,1.6164,1.6239,1.6241,0,0,0,0,0,0,1.6153,1.6154,1.6175,1.6175,1.6154,1.6157,1.6157,1.6164,1.6163,1.6162,1.6155,1.6153,1.6161,1.6162,1.6163,1.62,1.6163,1.6164,1.6165,1.6238,1.624,1.6241,0,0,0,0,0,0,1.6152,1.6155,1.6175,1.6164,1.6166,1.6159,1.6166,1.6164,1.6168,1.6163,1.6162,1.616,1.616,1.6162,1.6182,1.62,1.6165,1.6166,1.6237,1.6239,1.624,1.6272,0,0,0,0,0,0,1.6151,1.6155,1.6166,1.6164,1.6167,1.6193,1.6167,1.6165,1.617,1.6168,1.6168,1.6167,1.6159,1.618,1.6183,1.6201,1.6167,1.6235,1.6238,1.624,1.627,1.6275,1.628,0,0,0,0,0,1.615,1.6175,1.6167,1.6169,1.618,1.6194,1.6196,1.6186,1.6172,1.6183,1.618,1.6167,1.6197,1.6183,1.6186,1.6204,1.6234,1.6237,1.624,1.6267,1.6274,1.628,0,0,0,0,0,0,1.6178,1.6174,1.6165,1.6189,1.6192,1.619,1.6204,1.6193,1.62,1.6197,1.6185,1.6185,1.6208,1.6208,1.6192,1.6234,1.6213,1.6217,1.6233,1.6239,1.6244,1.6244,1.6168,0,0,0,0,0,1.6187,1.6199,1.6194,1.6216,1.6218,1.6211,1.6216,1.6209,1.6211,1.6213,1.6211,1.6215,1.6225,1.6232,1.6241,1.6269,1.627,1.6283,1.6288,1.6292,1.6296,1.6312,1.6319,1.625,1.625,1.625,0,0,1.6206,1.6205,1.6213,1.6222,1.6223,1.6236,1.6212,1.6226,1.6236,1.6215,1.6234,1.6233,1.6236,1.6261,1.6272,1.6262,1.6315,1.6296,1.6299,1.6301,1.6316,1.6322,1.6328,1.6252,1.6252,1.6251,0,0,1.6247,1.6247,1.6265,1.6267,1.627,1.6265,1.627,1.6269,1.6267,1.6287,1.6272,1.6283,1.6301,1.6304,1.6308,1.6351,1.6339,1.6354,1.6381,1.6397,1.6402,1.6407,1.6423,1.6429,1.6358,1.6358,1.6358,0,1.627,1.6288,1.6276,1.6292,1.6297,1.6279,1.6298,1.6301,1.6306,1.631,1.6298,1.6321,1.6322,1.6348,1.6358,1.6362,1.6367,1.6355,1.6402,1.6407,1.6411,1.6427,1.6433,1.636,1.6359,1.6359,1.6359,0,1.6317,1.6329,1.6344,1.6351,1.6357,1.6374,1.6366,1.6374,1.6366,1.6363,1.6384,1.6384,1.6393,1.6399,1.6391,1.6424,1.6417,1.6404,1.6383,1.642,1.6434,1.644,1.6362,1.6362,1.6361,1.6361,0,0,1.6375,1.6375,1.6381,1.6384,1.6386,1.6396,1.6413,1.6422,1.643,1.6434,1.6449,1.6465,1.6453,1.6457,1.6449,1.6463,1.6499,1.6448,1.6448,1.6459,1.6537,1.6548,1.6555,1.6491,1.6492,1.6493,1.6537,0,1.6416,1.6445,1.6436,1.6465,1.6478,1.6461,1.6476,1.6479,1.6476,1.6487,1.6484,1.6496,1.6478,1.6481,1.6494,1.6492,1.6515,1.6488,1.6505,1.6506,1.6506,1.6562,1.6574,1.6616,1.6543,1.6544,1.6544,0,1.6467,1.6474,1.6505,1.6506,1.6511,1.6524,1.6533,1.6543,1.6546,1.6544,1.6549,1.6539,1.6556,1.6535,1.656,1.6542,1.6548,1.6548,1.655,1.6552,1.6528,1.6567,1.6629,1.6635,1.6553,1.6552,1.6552,0,1.6508,1.6525,1.6546,1.6549,1.655,1.6561,1.6562,1.6564,1.6571,1.6578,1.6582,1.6592,1.6597,1.6605,1.6598,1.6582,1.6624,1.6601,1.6623,1.6623,1.6633,1.6633,1.6698,1.6635,1.6635,1.6635,1.6635,0,1.6555,1.6575,1.6565,1.6578,1.66,1.659,1.6612,1.6611,1.6614,1.6627,1.6613,1.6625,1.6615,1.6627,1.6621,1.6643,1.6645,1.6644,1.6643,1.6646,1.6646,1.6651,1.6648,1.6637,1.6636,1.6636,1.6636,0,1.6605,1.6599,1.6621,1.662,1.6621,1.6637,1.6637,1.665,1.6646,1.6663,1.6667,1.6661,1.6675,1.6668,1.6682,1.6678,1.6707,1.6701,1.6706,1.6705,1.6727,1.6726,1.6798,1.6808,1.6738,1.6739,1.674,0,1.6636,1.6651,1.6652,1.666,1.6662,1.6675,1.6682,1.6672,1.668,1.6686,1.6698,1.671,1.672,1.6742,1.674,1.6751,1.6745,1.677,1.6747,1.675,1.6747,1.6747,1.6749,1.6775,1.6776,1.6777,1.6777,0,1.6692,1.6688,1.6698,1.6708,1.6717,1.6724,1.673,1.6737,1.6728,1.6738,1.6752,1.6759,1.6774,1.6786,1.6796,1.6797,1.6786,1.6784,1.679,1.6794,1.6797,1.6797,1.672,1.6783,1.6782,1.6782,1.6782,1.6781,1.6733,1.6747,1.675,1.6763,1.6766,1.6773,1.6785,1.6783,1.6794,1.6806,1.6799,1.6816,1.682,1.6832,1.6835,1.6848,1.6838,1.6846,1.6849,1.6851,1.6855,1.6794,1.685,1.6849,1.6849,1.6849,1.6849,0,1.679,1.6791,1.6803,1.6812,1.6822,1.6811,1.6817,1.6826,1.6841,1.6846,1.6856,1.6872,1.6885,1.6884,1.6895,1.6906,1.6901,1.691,1.6909,1.691,1.6862,1.6856,1.6913,1.6913,1.6913,1.6913,1.6913,1.6913,1.682,1.6842,1.684,1.6864,1.6865,1.6881,1.6886,1.6892,1.6896,1.6915,1.6926,1.6925,1.6928,1.694,1.6951,1.695,1.6956,1.6966,1.6964,1.6919,1.6913,1.6907,1.6902,1.6967,1.6967,1.7011,1.7012,1.7012]},{"header":{"parameterUnit":"m.s-1","parameterCategory":1,"la1":30.2991,"la2":30.254,"lo1":-89.0895,"lo2":-89.0444,"dx":0.0017,"dy":0.0017,"nx":28,"ny":28,"refTime":"2023-01-12T15:00:00:Z","depth":0,"parameterNumber":3,"parameterNumberName":"V-component_of_WINDS"},"data":[0,0,0,0,0,0,0,0,0,0,0,0,0,0,0,0,0,0,0,0,0,0,0,0,0,0,0,0,0,0,0,0,0,0,0,0,0,0,0,0,0,0,0,0,0,0,0,0,0,0,0,0,0,0,0,0,0,0,5.9107,5.9108,0,5.9132,5.9132,5.9132,5.9099,5.9098,5.9097,5.9095,5.9118,5.912,5.9121,0,0,0,0,0,0,0,0,0,0,0,0,0,5.903,5.9032,5.9107,5.9108,5.9108,5.9132,5.9132,5.9133,5.9099,5.9098,5.9096,5.9095,5.9117,5.912,5.9122,0,0,0,0,0,0,0,0,0,0,0,0,0,5.906,5.9032,5.9107,5.9094,5.9093,5.9132,5.9132,5.9133,5.9099,5.9098,5.9096,5.9094,5.9117,5.9119,5.9122,5.9174,0,0,5.913,5.9131,0,0,0,0,0,0,0,0,5.9058,5.9063,5.9096,5.9095,5.9094,5.9111,5.9113,5.9146,5.91,5.9097,5.9095,5.9093,5.9117,5.9119,5.9128,5.9175,5.9176,5.913,5.9132,5.9133,5.9133,0,0,0,0,0,0,0,5.9056,5.9062,5.9117,5.9096,5.9095,5.9087,5.9089,5.9119,5.9117,5.9097,5.9095,5.9098,5.9116,5.9125,5.9128,5.9176,5.913,5.9132,5.9134,5.9135,5.9269,5.9271,0,0,0,0,0,0,5.9056,5.906,5.9116,5.9118,5.9072,5.909,5.9092,5.9107,5.9116,5.9116,5.91,5.9097,5.9122,5.9125,5.9129,5.9192,5.9133,5.9135,5.9136,5.9267,5.927,5.9272,0,0,0,0,0,0,5.9055,5.9061,5.9115,5.9088,5.9095,5.9093,5.911,5.9108,5.9118,5.9118,5.9117,5.911,5.9121,5.9125,5.9163,5.9192,5.9136,5.9139,5.9265,5.9268,5.9271,5.9317,0,0,0,0,0,0,5.9053,5.9061,5.9081,5.9089,5.9096,5.915,5.9112,5.911,5.9123,5.9119,5.9128,5.9127,5.912,5.916,5.9166,5.9195,5.9141,5.9262,5.9266,5.927,5.9313,5.9322,5.9329,0,0,0,0,0,5.905,5.9092,5.9082,5.9089,5.9121,5.9152,5.9155,5.9147,5.9125,5.9145,5.9146,5.9127,5.9188,5.9164,5.9171,5.9201,5.926,5.9265,5.9269,5.931,5.932,5.9329,0,0,0,0,0,0,5.9085,5.9092,5.9082,5.9128,5.914,5.9146,5.9171,5.9157,5.9175,5.917,5.9157,5.916,5.9201,5.9204,5.9178,5.9252,5.9221,5.9227,5.9249,5.9259,5.9266,5.9265,5.9143,0,0,0,0,0,5.9099,5.9124,5.9128,5.9168,5.9175,5.9172,5.9185,5.9177,5.9189,5.9193,5.9196,5.9208,5.923,5.9244,5.9264,5.9313,5.9316,5.9337,5.9345,5.9352,5.9357,5.9386,5.9396,5.9287,5.9287,5.9287,0,0,5.9126,5.9133,5.9149,5.9176,5.9184,5.921,5.9176,5.9205,5.9224,5.9197,5.9234,5.9237,5.9249,5.9294,5.9314,5.9298,5.9388,5.9357,5.9362,5.9365,5.9392,5.9402,5.9411,5.929,5.9289,5.9289,0,0,5.919,5.9197,5.9232,5.9242,5.9256,5.9254,5.9263,5.9272,5.9273,5.9311,5.9292,5.9314,5.9352,5.9362,5.9372,5.9442,5.9426,5.9449,5.949,5.9518,5.9526,5.9534,5.9561,5.957,5.9454,5.9454,5.9454,0,5.9222,5.9261,5.9252,5.9283,5.9296,5.9274,5.9311,5.932,5.9339,5.9348,5.933,5.9379,5.9385,5.9433,5.9451,5.9459,5.9469,5.9448,5.9526,5.9534,5.954,5.9566,5.9576,5.9457,5.9457,5.9457,5.9456,0,5.9301,5.9329,5.9356,5.9377,5.9393,5.9426,5.9422,5.9439,5.9431,5.9431,5.947,5.9477,5.9499,5.951,5.9501,5.9558,5.9548,5.9528,5.9496,5.9554,5.9578,5.9587,5.9461,5.946,5.9459,5.9459,0,0,5.9386,5.9404,5.9415,5.9425,5.944,5.9461,5.9494,5.9517,5.9533,5.9547,5.9575,5.9608,5.9591,5.9603,5.9595,5.9619,5.9677,5.9597,5.9597,5.9613,5.9742,5.9758,5.9769,5.9667,5.9668,5.967,5.9742,0,5.9452,5.951,5.9504,5.956,5.9586,5.9567,5.9596,5.9608,5.961,5.9632,5.9633,5.9658,5.9633,5.964,5.9663,5.9665,5.9703,5.966,5.9693,5.9694,5.9692,5.9781,5.9798,5.9865,5.9751,5.9752,5.9754,0,5.9536,5.9556,5.9615,5.9628,5.9639,5.9665,5.9687,5.9709,5.9722,5.9722,5.9736,5.9725,5.9758,5.9725,5.9772,5.9742,5.9756,5.9759,5.9761,5.9765,5.9728,5.9789,5.9886,5.9897,5.9768,5.9767,5.9766,0,5.9595,5.9636,5.9677,5.9687,5.9702,5.9722,5.9729,5.9741,5.9756,5.9775,5.9785,5.9807,5.9819,5.9837,5.9832,5.9808,5.988,5.9846,5.9881,5.9882,5.9898,5.9897,6.0001,5.9904,5.9904,5.9904,5.9904,0,5.9669,5.9706,5.9705,5.973,5.9772,5.9764,5.9805,5.981,5.9822,5.9848,5.9832,5.9856,5.9848,5.9872,5.9868,5.9909,5.9914,5.9915,5.9913,5.9917,5.9917,5.9926,5.9922,5.9907,5.9906,5.9906,5.9905,0,5.9742,5.9742,5.9787,5.9799,5.9803,5.9833,5.9844,5.9868,5.9869,5.9902,5.991,5.9911,5.9939,5.9936,5.9966,5.9964,6.0015,6.0007,6.0011,6.0009,6.0045,6.0043,6.0159,6.0175,6.0067,6.0068,6.0069,0,5.9791,5.9819,5.9836,5.9853,5.9862,5.989,5.9906,5.99,5.9917,5.9937,5.9959,5.9986,6.0008,6.0054,6.0057,6.0081,6.0074,6.0114,6.0078,6.0081,6.0077,6.0076,6.008,6.0121,6.0122,6.0123,6.0124,0,5.9877,5.9876,5.9901,5.9926,5.9947,5.9966,5.9983,5.9998,5.9994,6.0014,6.0044,6.0061,6.0094,6.0121,6.0144,6.0151,6.0138,6.0135,6.0145,6.0149,6.0151,6.0153,6.0032,6.0133,6.0132,6.0131,6.0131,6.013,5.994,5.9966,5.9982,6.0011,6.0024,6.0041,6.0066,6.007,6.0095,6.0123,6.0118,6.0151,6.0166,6.0196,6.0206,6.0232,6.0218,6.0231,6.0235,6.0239,6.0244,6.0146,6.0236,6.0235,6.0235,6.0235,6.0235,0,6.0027,6.0037,6.0064,6.009,6.0113,6.0099,6.0118,6.0138,6.0169,6.0184,6.0207,6.0242,6.0269,6.0275,6.0301,6.0321,6.0315,6.0328,6.0327,6.0329,6.0254,6.0244,6.0332,6.0332,6.0332,6.0332,6.0332,6.0332,6.0075,6.0119,6.012,6.017,6.018,6.0214,6.0227,6.0243,6.0256,6.0296,6.032,6.0324,6.0336,6.0363,6.0388,6.0389,6.04,6.0416,6.0414,6.0344,6.0334,6.0325,6.0316,6.0418,6.0418,6.0488,6.0488,6.0489]}]]